TimeEST,TemperatureF,Dew PointF,Humidity,Sea Level PressureIn,VisibilityMPH,Wind Direction,Wind SpeedMPH,Gust SpeedMPH,PrecipitationIn,Events,Conditions,WindDirDegrees,DateUTC
12:35 AM,41.0,35.6,81,30.14,10.0,Calm,Calm,-,N/A,,Clear,0,2012-12-20 05:35:00
12:55 AM,39.2,35.6,87,30.14,10.0,Calm,Calm,-,N/A,,Clear,0,2012-12-20 05:55:00
1:15 AM,39.2,35.6,87,30.14,10.0,Calm,Calm,-,N/A,,Clear,0,2012-12-20 06:15:00
1:35 AM,37.4,35.6,93,30.14,10.0,Calm,Calm,-,N/A,,Clear,0,2012-12-20 06:35:00
1:55 AM,37.4,35.6,93,30.13,10.0,Calm,Calm,-,N/A,,Clear,0,2012-12-20 06:55:00
2:15 AM,37.4,35.6,93,30.13,10.0,Calm,Calm,-,N/A,,Clear,0,2012-12-20 07:15:00
2:35 AM,37.4,35.6,93,30.14,10.0,Calm,Calm,-,N/A,,Clear,0,2012-12-20 07:35:00
2:55 AM,37.4,35.6,93,30.14,10.0,Calm,Calm,-,N/A,,Clear,0,2012-12-20 07:55:00
3:15 AM,37.4,35.6,93,30.14,10.0,Calm,Calm,-,N/A,,Clear,0,2012-12-20 08:15:00
3:35 AM,37.4,35.6,93,30.14,7.0,Calm,Calm,-,N/A,,Clear,0,2012-12-20 08:35:00
4:15 AM,35.6,33.8,93,30.13,5.0,Calm,Calm,-,N/A,,Clear,0,2012-12-20 09:15:00
4:35 AM,35.6,33.8,93,30.13,5.0,Calm,Calm,-,N/A,,Clear,0,2012-12-20 09:35:00
4:55 AM,35.6,33.8,93,30.14,10.0,Calm,Calm,-,N/A,,Clear,0,2012-12-20 09:55:00
5:15 AM,35.6,33.8,93,30.13,10.0,Calm,Calm,-,N/A,,Clear,0,2012-12-20 10:15:00
5:35 AM,35.6,33.8,93,30.13,10.0,Calm,Calm,-,N/A,,Clear,0,2012-12-20 10:35:00
5:55 AM,35.6,33.8,93,30.13,10.0,Calm,Calm,-,N/A,,Clear,0,2012-12-20 10:55:00
6:15 AM,35.6,33.8,93,30.14,10.0,Calm,Calm,-,N/A,,Clear,0,2012-12-20 11:15:00
6:35 AM,35.6,33.8,93,30.13,10.0,Calm,Calm,-,N/A,,Clear,0,2012-12-20 11:35:00
6:55 AM,37.4,35.6,93,30.13,10.0,Calm,Calm,-,N/A,,Clear,0,2012-12-20 11:55:00
7:55 AM,42.8,35.6,76,30.09,10.0,Calm,Calm,-,N/A,,Clear,0,2012-12-20 12:55:00
8:55 AM,42.8,37.4,81,30.10,10.0,Calm,Calm,-,N/A,,Clear,0,2012-12-20 13:55:00
9:55 AM,46.4,37.4,71,30.09,10.0,Calm,Calm,-,N/A,,Clear,0,2012-12-20 14:55:00
10:55 AM,48.2,39.2,71,30.09,10.0,South,5.8,-,N/A,,Scattered Clouds,170,2012-12-20 15:55:00
11:55 AM,48.2,39.2,71,30.05,10.0,Calm,Calm,-,N/A,,Overcast,0,2012-12-20 16:55:00
12:55 PM,50.0,39.2,66,29.94,10.0,East,5.8,-,N/A,,Overcast,100,2012-12-20 17:55:00
1:55 PM,51.8,41.0,67,29.90,10.0,ESE,5.8,-,N/A,,Overcast,120,2012-12-20 18:55:00
2:55 PM,51.8,42.8,71,29.87,7.0,Calm,Calm,-,N/A,Rain,Light Rain,0,2012-12-20 19:55:00
3:55 PM,50.0,44.6,82,29.79,7.0,East,3.5,-,N/A,Rain,Light Rain,100,2012-12-20 20:55:00
4:55 PM,50.0,46.4,87,29.73,7.0,ESE,3.5,-,N/A,Rain,Light Rain,110,2012-12-20 21:55:00
5:55 PM,51.8,48.2,88,29.66,7.0,ESE,6.9,-,N/A,Rain,Light Rain,120,2012-12-20 22:55:00
7:55 PM,53.6,53.6,100,29.61,3.0,West,3.5,-,N/A,Rain,Rain,260,2012-12-21 00:55:00
8:15 PM,53.6,51.8,94,29.61,3.0,SSW,3.5,-,0.02,,Overcast,210,2012-12-21 01:15:00
8:35 PM,53.6,51.8,94,29.61,7.0,SSW,6.9,-,0.02,,Overcast,210,2012-12-21 01:35:00
8:50 PM,53.6,53.6,100,29.61,10.0,SW,13.8,23.0,N/A,,Overcast,230,2012-12-21 01:50:00
8:55 PM,53.6,51.8,94,29.61,10.0,SW,11.5,19.6,0.02,,Overcast,220,2012-12-21 01:55:00
9:15 PM,53.6,50.0,88,29.60,10.0,SW,10.4,23.0,N/A,,Overcast,220,2012-12-21 02:15:00
9:35 PM,51.8,46.4,82,29.60,10.0,SW,18.4,26.5,N/A,,Mostly Cloudy,220,2012-12-21 02:35:00
9:55 PM,51.8,44.6,76,29.60,10.0,WSW,18.4,26.5,N/A,,Scattered Clouds,240,2012-12-21 02:55:00
10:15 PM,50.0,44.6,82,29.60,10.0,SW,16.1,26.5,N/A,,Clear,230,2012-12-21 03:15:00
10:55 PM,50.0,42.8,76,29.60,10.0,SW,13.8,24.2,N/A,,Clear,220,2012-12-21 03:55:00
11:35 PM,48.2,42.8,82,29.60,10.0,SW,15.0,26.5,N/A,,Scattered Clouds,220,2012-12-21 04:35:00